Weather History for Waseca, MN

Change the Weather History Date:

Saturday, April 13, 2013

  Actual Average Record
Temperature  
Mean Temperature 32 °F -  
Max Temperature 35 °F 54 °F 87 °F (2006)
Min Temperature 28 °F 34 °F 10 °F (1962)
Degree Days  
Heating Degree Days 34    
Moisture  
Dew Point 27 °F    
Average Humidity 84    
Maximum Humidity 93    
Minimum Humidity 75    
Precipitation  
Precipitation 0.00 in - - ()
Sea Level Pressure  
Sea Level Pressure 29.90 in    
Wind  
Wind Speed 11 mph (WNW)    
Max Wind Speed 16 mph    
Max Gust Speed 20 mph    
Visibility 9 miles    
Events Snow    
Averages and records for this station are not official NWS values.
T = Trace of Precipitation, MM = Missing Value Source: NWS Daily Summary

Daily Weather History Graph

Daily Weather History Graph

Search for Another Location

Airport:

Trip Planner

Search our weather history database for the weather conditions in past years. The results will help you decide how hot, cold, wet, or windy it might be!

Date:

Astronomy

Apr. 13, 2013 Rise Set
Actual Time 6:33 AM CDT 7:56 PM CDT
Civil Twilight 6:03 AM CDT 8:26 PM CDT
Nautical Twilight 5:27 AM CDT 9:02 PM CDT
Astronomical Twilight 4:49 AM CDT 9:41 PM CDT
Moon 8:20 AM CDT (4/13) 11:26 PM CDT (4/13)
Length of Visible Light 14h 22m
Length of Day
13h 22m
Waxing Crescent, 10% of the Moon is Illuminated
Apr 13
Waxing Crescent
Apr 18
First Quarter
Apr 25
Full
May 2
Last Quarter
May 9
New

Hourly Weather History & Observations

Time (CDT) Temp. Windchill Dew Point Humidity Pressure Visibility Wind Dir Wind Speed Gust Speed Precip Events Conditions
12:16 AM 32.0 °F 23.0 °F 30.2 °F 93% 29.86 in 2.5 mi West 11.5 mph - N/A Snow Light Snow
12:36 AM 32.0 °F 23.0 °F 30.2 °F 93% 29.86 in 4.0 mi West 11.5 mph - N/A Snow Light Snow
12:56 AM 32.0 °F 23.6 °F 30.2 °F 93% 29.86 in 3.0 mi West 10.4 mph - N/A Snow Light Snow
1:16 AM 32.0 °F 23.6 °F 30.2 °F 93% 29.86 in 2.5 mi West 10.4 mph - N/A Snow Light Snow
1:36 AM 30.2 °F 20.2 °F 28.4 °F 93% 29.86 in 2.5 mi West 12.7 mph - N/A Snow Light Snow
1:56 AM 30.2 °F 19.8 °F 28.4 °F 93% 29.86 in 2.0 mi West 13.8 mph - N/A Snow Light Snow
2:17 AM 30.2 °F 20.8 °F 28.4 °F 93% 29.86 in 1.8 mi West 11.5 mph - N/A Snow Light Snow
2:36 AM 30.2 °F 20.2 °F 28.4 °F 93% 29.86 in 4.0 mi West 12.7 mph - N/A Snow Light Snow
2:56 AM 30.2 °F 20.8 °F 28.4 °F 93% 29.86 in 5.0 mi West 11.5 mph - N/A Snow Light Snow
3:17 AM 30.2 °F 20.8 °F 28.4 °F 93% 29.86 in 5.0 mi West 11.5 mph - N/A Snow Light Snow
3:36 AM 30.2 °F 20.2 °F 28.4 °F 93% 29.86 in 7.0 mi West 12.7 mph - N/A Snow Light Snow
3:56 AM 30.2 °F 19.8 °F 28.4 °F 93% 29.86 in 5.0 mi West 13.8 mph - N/A Snow Light Snow
4:17 AM 30.2 °F 19.8 °F 28.4 °F 93% 29.86 in 10.0 mi West 13.8 mph - N/A   Overcast
4:36 AM 30.2 °F 18.9 °F 28.4 °F 93% 29.87 in 10.0 mi West 16.1 mph - N/A   Overcast
4:56 AM 30.2 °F 18.9 °F 28.4 °F 93% 29.88 in 10.0 mi West 16.1 mph - N/A   Overcast
5:17 AM 28.4 °F 16.6 °F 26.6 °F 93% 29.88 in 10.0 mi West 16.1 mph - N/A   Overcast
5:36 AM 30.2 °F 18.9 °F 26.6 °F 86% 29.88 in 10.0 mi West 16.1 mph - N/A   Overcast
5:56 AM 30.2 °F 19.8 °F 26.6 °F 86% 29.88 in 10.0 mi West 13.8 mph - N/A   Overcast
6:17 AM 30.2 °F 20.8 °F 26.6 °F 86% 29.88 in 10.0 mi West 11.5 mph - N/A   Overcast
6:36 AM 30.2 °F 20.8 °F 26.6 °F 86% 29.88 in 10.0 mi West 11.5 mph - N/A   Overcast
6:56 AM 30.2 °F 20.8 °F 26.6 °F 86% 29.88 in 10.0 mi West 11.5 mph - N/A   Overcast
7:17 AM 30.2 °F 20.2 °F 26.6 °F 86% 29.89 in 10.0 mi West 12.7 mph - N/A   Overcast
7:36 AM 30.2 °F 21.3 °F 26.6 °F 86% 29.90 in 10.0 mi West 10.4 mph - N/A   Overcast
7:56 AM 30.2 °F 18.9 °F 26.6 °F 86% 29.91 in 10.0 mi West 16.1 mph 19.6 mph N/A   Overcast
8:17 AM 30.2 °F 19.8 °F 26.6 °F 86% 29.91 in 10.0 mi WNW 13.8 mph - N/A   Overcast
8:36 AM 30.2 °F 20.2 °F 26.6 °F 86% 29.91 in 10.0 mi WNW 12.7 mph - N/A   Overcast
8:56 AM 30.2 °F 21.3 °F 26.6 °F 86% 29.91 in 10.0 mi WNW 10.4 mph - N/A   Overcast
9:17 AM 30.2 °F 19.3 °F 26.6 °F 86% 29.91 in 10.0 mi WNW 15.0 mph - N/A   Overcast
9:36 AM 30.2 °F 21.3 °F 26.6 °F 86% 29.91 in 10.0 mi West 10.4 mph - N/A   Overcast
9:56 AM 30.2 °F 20.8 °F 26.6 °F 86% 29.91 in 10.0 mi WSW 11.5 mph - N/A   Overcast
10:17 AM 30.2 °F 20.8 °F 26.6 °F 86% 29.92 in 10.0 mi West 11.5 mph - N/A   Overcast
10:36 AM 32.0 °F 23.0 °F 28.4 °F 87% 29.92 in 5.0 mi West 11.5 mph - N/A   Overcast
10:56 AM 32.0 °F 22.5 °F 28.4 °F 87% 29.92 in 7.0 mi West 12.7 mph - N/A   Overcast
11:17 AM 32.0 °F 23.0 °F 28.4 °F 87% 29.93 in 10.0 mi West 11.5 mph - N/A   Overcast
11:36 AM 32.0 °F 23.0 °F 28.4 °F 87% 29.93 in 10.0 mi West 11.5 mph - N/A   Overcast
11:56 AM 32.0 °F 23.0 °F 28.4 °F 87% 29.94 in 10.0 mi West 11.5 mph - N/A   Overcast
12:17 PM 32.0 °F 23.6 °F 28.4 °F 87% 29.93 in 10.0 mi West 10.4 mph - N/A   Overcast
12:36 PM 32.0 °F 22.5 °F 26.6 °F 80% 29.94 in 10.0 mi West 12.7 mph - N/A   Overcast
12:56 PM 32.0 °F 22.1 °F 26.6 °F 80% 29.94 in 10.0 mi West 13.8 mph - N/A   Overcast
1:17 PM 32.0 °F 24.2 °F 26.6 °F 80% 29.93 in 10.0 mi West 9.2 mph - N/A   Overcast
1:36 PM 32.0 °F 23.0 °F 26.6 °F 80% 29.93 in 10.0 mi West 11.5 mph - N/A   Overcast
1:57 PM 32.0 °F 23.0 °F 26.6 °F 80% 29.93 in 10.0 mi West 11.5 mph - N/A   Overcast
2:17 PM 32.0 °F 23.6 °F 26.6 °F 80% 29.93 in 10.0 mi West 10.4 mph - N/A   Overcast
2:36 PM 32.0 °F 23.6 °F 26.6 °F 80% 29.93 in 10.0 mi West 10.4 mph - N/A   Overcast
2:57 PM 33.8 °F 27.0 °F 28.4 °F 81% 29.93 in 10.0 mi West 8.1 mph - N/A   Overcast
3:16 PM 33.8 °F 27.7 °F 28.4 °F 81% 29.92 in 10.0 mi WNW 6.9 mph - N/A   Overcast
3:37 PM 33.8 °F 28.6 °F 28.4 °F 81% 29.92 in 10.0 mi NW 5.8 mph - N/A   Overcast
3:57 PM 35.6 °F 29.2 °F 28.4 °F 75% 29.91 in 10.0 mi NNW 8.1 mph - N/A   Overcast
4:16 PM 35.6 °F 30.7 °F 28.4 °F 75% 29.91 in 10.0 mi NNW 5.8 mph - N/A   Mostly Cloudy
4:37 PM 33.8 °F 28.6 °F 28.4 °F 81% 29.91 in 10.0 mi WNW 5.8 mph - N/A   Overcast
4:57 PM 33.8 °F 28.6 °F 28.4 °F 81% 29.90 in 10.0 mi NNW 5.8 mph - N/A   Scattered Clouds
5:16 PM 33.8 °F 29.6 °F 26.6 °F 75% 29.91 in 10.0 mi NNW 4.6 mph - N/A   Mostly Cloudy
5:37 PM 35.6 °F - 28.4 °F 75% 29.91 in 10.0 mi Calm Calm - N/A   Scattered Clouds
5:57 PM 35.6 °F 32.8 °F 28.4 °F 75% 29.91 in 10.0 mi North 3.5 mph - N/A   Mostly Cloudy
6:16 PM 33.8 °F 30.8 °F 26.6 °F 75% 29.91 in 10.0 mi NNE 3.5 mph - N/A   Scattered Clouds
6:37 PM 33.8 °F - 26.6 °F 75% 29.91 in 10.0 mi Calm Calm - N/A   Clear
6:57 PM 33.8 °F 29.6 °F 26.6 °F 75% 29.91 in 10.0 mi North 4.6 mph - N/A   Scattered Clouds
7:16 PM 33.8 °F 29.6 °F 26.6 °F 75% 29.90 in 10.0 mi North 4.6 mph - N/A   Clear
7:37 PM 32.0 °F 25.6 °F 26.6 °F 80% 29.90 in 10.0 mi NNE 6.9 mph - N/A   Clear
7:57 PM 32.0 °F 26.4 °F 26.6 °F 80% 29.91 in 10.0 mi NNE 5.8 mph - N/A   Scattered Clouds
8:16 PM 32.0 °F 26.4 °F 26.6 °F 80% 29.91 in 10.0 mi NNE 5.8 mph - N/A   Scattered Clouds
8:37 PM 32.0 °F 27.5 °F 26.6 °F 80% 29.91 in 10.0 mi NE 4.6 mph - N/A   Scattered Clouds
8:57 PM 32.0 °F 27.5 °F 26.6 °F 80% 29.92 in 10.0 mi NE 4.6 mph - N/A   Scattered Clouds
9:16 PM 32.0 °F 28.7 °F 26.6 °F 80% 29.93 in 10.0 mi NE 3.5 mph - N/A   Scattered Clouds
9:37 PM 32.0 °F 27.5 °F 26.6 °F 80% 29.94 in 10.0 mi ENE 4.6 mph - N/A   Scattered Clouds
9:56 PM 32.0 °F 25.6 °F 26.6 °F 80% 29.94 in 10.0 mi ENE 6.9 mph - N/A   Mostly Cloudy
10:17 PM 32.0 °F 25.6 °F 26.6 °F 80% 29.95 in 10.0 mi ENE 6.9 mph - N/A   Overcast
10:36 PM 32.0 °F 25.6 °F 26.6 °F 80% 29.95 in 10.0 mi ENE 6.9 mph - N/A   Overcast
10:56 PM 32.0 °F 23.0 °F 26.6 °F 80% 29.94 in 10.0 mi ENE 11.5 mph - N/A   Overcast
11:16 PM 32.0 °F 23.6 °F 26.6 °F 80% 29.93 in 10.0 mi East 10.4 mph - N/A   Overcast
11:36 PM 32.0 °F 23.6 °F 26.6 °F 80% 29.93 in 10.0 mi East 10.4 mph - N/A   Overcast
11:56 PM 32.0 °F 23.6 °F 26.6 °F 80% 29.93 in 10.0 mi East 10.4 mph - N/A   Overcast